[[{"header":{"parameterUnit":"m.s-1","parameterCategory":1,"la1":30.2991,"la2":30.254,"lo1":-89.0895,"lo2":-89.0444,"dy":0.0017,"dx":0.0017,"nx":28,"ny":28,"refTime":"2026-02-05T03:00:00:Z","depth":0,"parameterNumber":2,"parameterNumberName":"U-component_of_WINDS"},"data":[0,0,0,0,0,0,0,0,0,0,0,0,0,0,0,0,0,0,0,0,0,0,0,0,0,0,0,0,0,0,0,0,0,0,0,0,0,0,0,0,0,0,0,0,0,0,0,0,0,0,0,0,0,0,0,0,0,0,3.6422,3.6423,0,3.648,3.648,3.6481,3.6417,3.6414,3.6412,3.641,3.6471,3.6474,3.6478,0,0,0,0,0,0,0,0,0,0,0,0,0,3.6262,3.6265,3.6422,3.6423,3.6424,3.648,3.648,3.6481,3.6417,3.6414,3.6411,3.6409,3.6469,3.6474,3.6479,0,0,0,0,0,0,0,0,0,0,0,0,0,3.6327,3.6266,3.6422,3.6398,3.6397,3.6479,3.648,3.6481,3.6418,3.6414,3.6411,3.6407,3.6468,3.6473,3.6479,3.6588,0,0,3.6497,3.65,0,0,0,0,0,0,0,0,3.6323,3.6332,3.6401,3.64,3.6399,3.6437,3.6446,3.6517,3.6419,3.641,3.641,3.6405,3.6463,3.6469,3.6487,3.6591,3.6594,3.6498,3.6501,3.6504,3.6505,0,0,0,0,0,0,0,3.6318,3.633,3.6445,3.6402,3.6401,3.6386,3.6392,3.6459,3.6456,3.641,3.6406,3.6414,3.6461,3.6482,3.6488,3.6595,3.6497,3.6503,3.6506,3.6508,3.6795,3.6799,0,0,0,0,0,0,3.6316,3.6326,3.6443,3.6447,3.6351,3.6392,3.6398,3.6429,3.6455,3.6456,3.6417,3.641,3.6474,3.6482,3.649,3.6623,3.6504,3.6509,3.6512,3.6791,3.6796,3.6801,0,0,0,0,0,0,3.6313,3.6327,3.6441,3.6385,3.6399,3.6399,3.6434,3.6432,3.6452,3.646,3.6459,3.6438,3.6471,3.6482,3.6565,3.6624,3.6512,3.6517,3.6786,3.6793,3.6798,3.6886,0,0,0,0,0,0,3.6309,3.6326,3.6367,3.6387,3.6402,3.6514,3.6437,3.6435,3.6462,3.6455,3.648,3.6481,3.6469,3.6557,3.6571,3.663,3.6522,3.6781,3.6789,3.6797,3.6878,3.6895,3.6909,0,0,0,0,0,3.6303,3.6389,3.6369,3.6383,3.6452,3.6517,3.6526,3.651,3.6467,3.6509,3.6514,3.648,3.6615,3.6566,3.6581,3.6643,3.6777,3.6787,3.6796,3.6871,3.6892,3.6909,0,0,0,0,0,0,3.6375,3.6391,3.6369,3.6463,3.6489,3.6506,3.6557,3.6532,3.6571,3.6562,3.6542,3.6549,3.6638,3.6648,3.6593,3.6752,3.6689,3.6702,3.6742,3.6761,3.6776,3.6772,3.6526,0,0,0,0,0,3.6402,3.6452,3.6464,3.6546,3.656,3.6557,3.6585,3.6571,3.6597,3.6608,3.6619,3.6647,3.6696,3.6729,3.6774,3.688,3.6886,3.693,3.6945,3.6958,3.6969,3.703,3.705,3.6831,3.6831,3.6831,0,0,3.6458,3.6473,3.6505,3.6561,3.6579,3.6634,3.6566,3.6626,3.6667,3.6617,3.6697,3.6707,3.6737,3.6833,3.6875,3.6844,3.7031,3.6969,3.6979,3.6984,3.7041,3.7062,3.708,3.6837,3.6836,3.6835,0,0,3.6588,3.6603,3.6675,3.6695,3.6725,3.6723,3.674,3.6762,3.6766,3.6846,3.6811,3.686,3.6944,3.6968,3.6991,3.7135,3.7106,3.715,3.7231,3.729,3.7307,3.7322,3.7376,3.7395,3.7162,3.7162,3.7162,0,3.6654,3.6733,3.6715,3.6778,3.6805,3.6763,3.6837,3.6858,3.6901,3.6922,3.6886,3.6993,3.701,3.7113,3.7148,3.7168,3.7189,3.7147,3.7306,3.7321,3.7335,3.7386,3.7406,3.7167,3.7167,3.7166,3.7166,0,3.6814,3.6871,3.6925,3.6968,3.7001,3.707,3.7064,3.71,3.7084,3.7087,3.7171,3.719,3.724,3.7263,3.7248,3.7365,3.7345,3.7308,3.7245,3.7361,3.7409,3.7429,3.7175,3.7173,3.7171,3.717,0,0,3.6989,3.7024,3.7045,3.7065,3.7096,3.714,3.7208,3.7257,3.729,3.7322,3.738,3.7454,3.7421,3.7448,3.7435,3.7487,3.7604,3.7444,3.7444,3.7475,3.7738,3.7766,3.7789,3.7584,3.7588,3.7591,3.7736,0,3.7122,3.7239,3.7226,3.7338,3.7392,3.7355,3.7415,3.7441,3.7447,3.7494,3.75,3.7554,3.7504,3.7521,3.757,3.7579,3.7656,3.7568,3.7641,3.7644,3.7636,3.7814,3.7843,3.7979,3.7754,3.7757,3.7759,0,3.7291,3.733,3.7448,3.7474,3.7496,3.755,3.7596,3.7641,3.7672,3.7673,3.7705,3.7684,3.7755,3.7691,3.779,3.7731,3.776,3.7769,3.7774,3.7781,3.7709,3.7828,3.8022,3.8043,3.7788,3.7786,3.7784,0,3.741,3.7492,3.7574,3.7593,3.7625,3.7664,3.768,3.7707,3.7738,3.7779,3.78,3.7849,3.7876,3.7915,3.791,3.7863,3.8013,3.7947,3.8017,3.8017,3.805,3.8049,3.8254,3.8067,3.8067,3.8066,3.8066,0,3.756,3.7634,3.7629,3.7679,3.7763,3.7749,3.7832,3.7843,3.7868,3.7922,3.7893,3.7944,3.7933,3.7985,3.7982,3.8067,3.8078,3.8083,3.8081,3.8086,3.8086,3.8106,3.8097,3.8072,3.807,3.8069,3.8069,0,3.7707,3.7706,3.7793,3.7817,3.7825,3.7886,3.7907,3.7956,3.796,3.8029,3.8044,3.8051,3.8111,3.8109,3.8177,3.8175,3.828,3.8267,3.827,3.8268,3.8339,3.8333,3.8565,3.8596,3.8388,3.839,3.8391,0,3.7803,3.7859,3.789,3.7924,3.7943,3.7997,3.803,3.802,3.8055,3.8097,3.8142,3.82,3.8245,3.8344,3.8355,3.8409,3.8397,3.8475,3.8405,3.841,3.8402,3.8399,3.8406,3.8489,3.8492,3.8493,3.8495,0,3.7975,3.7973,3.802,3.807,3.811,3.8148,3.8183,3.8212,3.8206,3.8248,3.831,3.8345,3.8416,3.8475,3.8527,3.8544,3.8521,3.8517,3.8537,3.8543,3.8543,3.8547,3.8309,3.8512,3.851,3.8509,3.8508,3.8507,3.8101,3.8151,3.8181,3.8237,3.8262,3.8297,3.8345,3.8356,3.8406,3.8463,3.8454,3.8524,3.8557,3.8624,3.8647,3.8703,3.8676,3.8703,3.8711,3.8718,3.8727,3.8534,3.8712,3.8712,3.8711,3.8711,3.871,0,3.8273,3.8292,3.8343,3.8394,3.8438,3.8411,3.845,3.8489,3.8551,3.8583,3.8629,3.8702,3.876,3.8777,3.8834,3.8876,3.8866,3.8891,3.8889,3.8894,3.8747,3.8725,3.8898,3.8898,3.8898,3.8898,3.8898,3.8898,3.8368,3.8452,3.8454,3.8552,3.857,3.8638,3.8663,3.8695,3.8722,3.8804,3.8852,3.8863,3.8891,3.895,3.9003,3.9007,3.903,3.906,3.906,3.8922,3.8904,3.8886,3.8866,3.9065,3.9065,3.9202,3.9203,3.9204]},{"header":{"parameterUnit":"m.s-1","parameterCategory":1,"la1":30.2991,"la2":30.254,"lo1":-89.0895,"lo2":-89.0444,"dy":0.0017,"dx":0.0017,"nx":28,"ny":28,"refTime":"2026-02-05T03:00:00:Z","depth":0,"parameterNumber":3,"parameterNumberName":"V-component_of_WINDS"},"data":[0,0,0,0,0,0,0,0,0,0,0,0,0,0,0,0,0,0,0,0,0,0,0,0,0,0,0,0,0,0,0,0,0,0,0,0,0,0,0,0,0,0,0,0,0,0,0,0,0,0,0,0,0,0,0,0,0,0,0.0184,0.0185,0,0.0267,0.0268,0.0269,0.0282,0.0281,0.028,0.028,0.0366,0.0369,0.0372,0,0,0,0,0,0,0,0,0,0,0,0,0,0.0037,0.004,0.0184,0.0185,0.0186,0.0267,0.0268,0.027,0.0282,0.0281,0.028,0.0279,0.0365,0.0369,0.0373,0,0,0,0,0,0,0,0,0,0,0,0,0,0.0109,0.0041,0.0184,0.0202,0.0205,0.0267,0.0268,0.027,0.0282,0.0281,0.028,0.0279,0.0364,0.0369,0.0373,0.0423,0,0,0.0387,0.0389,0,0,0,0,0,0,0,0,0.0105,0.0114,0.0199,0.0201,0.0204,0.0263,0.0248,0.0321,0.0282,0.0253,0.028,0.0278,0.0333,0.034,0.0358,0.0428,0.0431,0.0387,0.039,0.0392,0.0393,0,0,0,0,0,0,0,0.01,0.0111,0.0217,0.02,0.0203,0.0207,0.0216,0.0262,0.0298,0.0255,0.0256,0.0266,0.0334,0.0354,0.036,0.0433,0.0387,0.0391,0.0394,0.0396,0.0547,0.0548,0,0,0,0,0,0,0.0091,0.0107,0.0215,0.022,0.0151,0.021,0.022,0.0245,0.0298,0.0305,0.0267,0.0266,0.0347,0.0355,0.0363,0.0426,0.0392,0.0396,0.0399,0.0546,0.0547,0.0549,0,0,0,0,0,0,0.0088,0.0101,0.0211,0.0163,0.0178,0.0214,0.0242,0.0247,0.0267,0.0306,0.0313,0.028,0.0346,0.0357,0.0408,0.0429,0.0398,0.0402,0.0544,0.0546,0.0548,0.055,0,0,0,0,0,0,0.0084,0.01,0.0119,0.0164,0.018,0.0254,0.0243,0.025,0.0275,0.0275,0.0321,0.0327,0.0346,0.0401,0.0413,0.0434,0.0406,0.0542,0.0545,0.0547,0.0549,0.0552,0.0555,0,0,0,0,0,0.0079,0.0117,0.012,0.0133,0.0205,0.0255,0.0265,0.0285,0.0276,0.0296,0.0321,0.0326,0.0425,0.0406,0.0419,0.0443,0.0541,0.0544,0.0547,0.0547,0.0551,0.0555,0,0,0,0,0,0,0.0074,0.0123,0.0127,0.0181,0.0214,0.0257,0.0283,0.0289,0.0326,0.0325,0.0349,0.0359,0.0409,0.0431,0.041,0.0494,0.0482,0.0488,0.0478,0.0482,0.0485,0.0479,0.041,0,0,0,0,0,0.008,0.0116,0.0157,0.02,0.0217,0.0247,0.027,0.0282,0.0318,0.0332,0.0361,0.0396,0.0434,0.046,0.0498,0.0552,0.0562,0.0574,0.0577,0.058,0.0585,0.0614,0.062,0.0558,0.0558,0.0558,0,0,0.0091,0.0122,0.0144,0.02,0.0227,0.0265,0.0259,0.0299,0.0327,0.0338,0.0388,0.0411,0.0451,0.0503,0.0528,0.0523,0.0604,0.0584,0.0585,0.0589,0.0618,0.0624,0.0629,0.056,0.056,0.056,0,0,0.0131,0.0158,0.0197,0.0224,0.0265,0.0285,0.0294,0.0337,0.0352,0.0402,0.0411,0.0445,0.0511,0.0539,0.0562,0.0612,0.0617,0.0624,0.0641,0.067,0.0675,0.0679,0.0696,0.0702,0.0628,0.0628,0.0628,0,0.014,0.0196,0.0216,0.0256,0.028,0.0292,0.0331,0.0357,0.0408,0.0425,0.0419,0.0502,0.0529,0.0589,0.0601,0.0619,0.063,0.0619,0.0672,0.0677,0.0681,0.0698,0.0705,0.0629,0.0628,0.0628,0.0628,0,0.0205,0.0244,0.0271,0.0319,0.0347,0.0386,0.0412,0.0438,0.0448,0.0469,0.0519,0.0553,0.0598,0.0613,0.0623,0.0673,0.0669,0.0667,0.0656,0.0687,0.0703,0.071,0.0629,0.0629,0.0629,0.0629,0,0,0.0245,0.0303,0.0313,0.0335,0.038,0.0411,0.0451,0.0494,0.0515,0.055,0.0584,0.0639,0.0638,0.0664,0.0678,0.0703,0.0739,0.0698,0.0699,0.0704,0.0796,0.0797,0.0804,0.0743,0.0744,0.0745,0.0793,0,0.029,0.0361,0.038,0.044,0.0476,0.0487,0.0522,0.0554,0.0574,0.0607,0.063,0.0669,0.0663,0.0679,0.0705,0.0729,0.0758,0.0726,0.0775,0.0776,0.0764,0.0813,0.0814,0.0857,0.0799,0.08,0.0801,0,0.0352,0.0387,0.0451,0.0491,0.0507,0.0538,0.0578,0.061,0.0647,0.0659,0.0688,0.0699,0.0741,0.0727,0.0785,0.0763,0.0784,0.0799,0.0801,0.0807,0.0791,0.0819,0.0871,0.0878,0.0811,0.081,0.081,0,0.0374,0.0438,0.0484,0.0502,0.055,0.0572,0.0593,0.0628,0.0652,0.0688,0.0704,0.0744,0.0766,0.0797,0.0819,0.0807,0.0875,0.0863,0.0887,0.0886,0.0901,0.09,0.0957,0.0915,0.0914,0.0914,0.0914,0,0.0422,0.046,0.0494,0.0523,0.0566,0.0587,0.063,0.0651,0.0682,0.0715,0.0727,0.0758,0.0785,0.0819,0.0836,0.0882,0.0892,0.0903,0.0907,0.0902,0.09,0.0916,0.0914,0.0916,0.0916,0.0915,0.0915,0,0.0454,0.0478,0.0529,0.0571,0.0582,0.0612,0.0647,0.0675,0.0695,0.0737,0.0748,0.078,0.0821,0.0845,0.0897,0.0909,0.0958,0.0962,0.0946,0.0948,0.097,0.0968,0.1039,0.105,0.1001,0.1001,0.1001,0,0.0483,0.0513,0.0557,0.058,0.0601,0.0637,0.0662,0.0684,0.071,0.0753,0.0776,0.0817,0.0851,0.0916,0.0944,0.0984,0.0988,0.101,0.0994,0.0987,0.0987,0.0985,0.0988,0.1013,0.1013,0.1013,0.1014,0,0.0532,0.0542,0.0577,0.0616,0.0646,0.0678,0.071,0.0728,0.0755,0.0783,0.0825,0.0851,0.0904,0.0945,0.0987,0.1009,0.1016,0.1018,0.1026,0.1021,0.101,0.1016,0.0953,0.1017,0.1017,0.1016,0.1016,0.1016,0.0563,0.059,0.0625,0.0664,0.069,0.0719,0.0747,0.0771,0.0806,0.085,0.0861,0.0905,0.094,0.0996,0.1019,0.1054,0.105,0.1061,0.1064,0.1066,0.1066,0.1005,0.1061,0.1061,0.1061,0.1061,0.1061,0,0.0612,0.0635,0.067,0.0714,0.0745,0.0748,0.0784,0.0809,0.0847,0.0879,0.0912,0.096,0.0999,0.103,0.107,0.1092,0.1096,0.1102,0.11,0.1105,0.1068,0.1057,0.1098,0.1098,0.1098,0.1098,0.1098,0.1098,0.0641,0.0686,0.0701,0.0759,0.0782,0.0824,0.0844,0.0871,0.0897,0.0949,0.0982,0.1001,0.1033,0.1076,0.1112,0.112,0.1134,0.1139,0.1148,0.1112,0.1108,0.1104,0.1094,0.1142,0.1142,0.1183,0.1183,0.1183]}]]